This is the latest recevied weather packets stored in our database for station/object I3LPO-3. If no packets are shown the sender has not sent any weather packets the latest 10 day(s).
| Time | Temp. | Humidity | Pressure | Rain* | Wind** | Luminosity | Snow |
|---|---|---|---|---|---|---|---|
| 1777446726 | 19.44° C | 38% | 1018.6 hPa | - | - | - | - |
| 1777445525 | 18.33° C | 38% | 1018.6 hPa | - | - | - | - |
| 1777444324 | 17.22° C | 38% | 1018.6 hPa | - | - | - | - |
| 1777443123 | 16.67° C | 38% | 1018.7 hPa | - | - | - | - |
| 1777441921 | 16.11° C | 38% | 1018.5 hPa | - | - | - | - |
| 1777440720 | 15.56° C | 38% | 1018.4 hPa | - | - | - | - |
| 1777439519 | 15.56° C | 38% | 1018.4 hPa | - | - | - | - |
| 1777438317 | 15° C | 38% | 1018.5 hPa | - | - | - | - |
| 1777437116 | 15.56° C | 38% | 1018.4 hPa | - | - | - | - |
| 1777435915 | 15.56° C | 39% | 1018.4 hPa | - | - | - | - |
| 1777434713 | 15.56° C | 39% | 1018.3 hPa | - | - | - | - |
| 1777433512 | 15.56° C | 39% | 1018.4 hPa | - | - | - | - |
| 1777432311 | 15.56° C | 39% | 1018.4 hPa | - | - | - | - |
| 1777431110 | 16.11° C | 39% | 1018.4 hPa | - | - | - | - |
| 1777429909 | 16.11° C | 39% | 1018.4 hPa | - | - | - | - |
| 1777428707 | 16.11° C | 39% | 1018.4 hPa | - | - | - | - |
| 1777427506 | 16.11° C | 39% | 1018.3 hPa | - | - | - | - |
| 1777426305 | 16.67° C | 39% | 1018.2 hPa | - | - | - | - |
| 1777425104 | 16.67° C | 39% | 1018.1 hPa | - | - | - | - |
| 1777423902 | 16.67° C | 39% | 1018.1 hPa | - | - | - | - |
| 1777422701 | 16.67° C | 39% | 1018.1 hPa | - | - | - | - |
| 1777421500 | 17.22° C | 39% | 1018.2 hPa | - | - | - | - |
| 1777420299 | 17.22° C | 39% | 1018.3 hPa | - | - | - | - |
| 1777419097 | 17.22° C | 39% | 1018.4 hPa | - | - | - | - |
| 1777417896 | 17.78° C | 39% | 1018.6 hPa | - | - | - | - |
* Rain since midnight (hover to see other rain measurements)
** Current wind speed in m/s (hover to see current wind gust speed)